TimeCST,TemperatureF,Dew PointF,Humidity,Sea Level PressureIn,VisibilityMPH,Wind Direction,Wind SpeedMPH,Gust SpeedMPH,PrecipitationIn,Events,Conditions,WindDirDegrees,DateUTC
12:14 AM,35.6,28.4,75,30.18,10.0,NW,12.7,19.6,N/A,,Overcast,310,2013-11-10 06:14:00
12:33 AM,35.6,26.6,70,30.19,10.0,NW,12.7,23.0,N/A,,Overcast,310,2013-11-10 06:33:00
12:54 AM,35.6,26.6,70,30.20,10.0,NW,15.0,21.9,N/A,,Overcast,320,2013-11-10 06:54:00
1:14 AM,35.6,26.6,70,30.20,10.0,NW,15.0,20.7,N/A,,Overcast,320,2013-11-10 07:14:00
1:34 AM,35.6,26.6,70,30.22,10.0,NNW,18.4,27.6,N/A,,Overcast,330,2013-11-10 07:34:00
1:53 AM,35.6,26.6,70,30.22,10.0,NNW,15.0,20.7,N/A,,Overcast,340,2013-11-10 07:53:00
2:14 AM,35.6,26.6,70,30.23,10.0,NNW,13.8,19.6,N/A,,Overcast,330,2013-11-10 08:14:00
2:34 AM,35.6,26.6,70,30.24,10.0,NW,11.5,20.7,N/A,,Overcast,320,2013-11-10 08:34:00
2:54 AM,35.6,26.6,70,30.24,10.0,NW,11.5,-,N/A,,Overcast,320,2013-11-10 08:54:00
3:14 AM,35.6,26.6,70,30.24,10.0,NW,10.4,16.1,N/A,,Overcast,320,2013-11-10 09:14:00
3:34 AM,35.6,24.8,65,30.25,10.0,NNW,10.4,-,N/A,,Overcast,330,2013-11-10 09:34:00
3:54 AM,35.6,26.6,70,30.25,10.0,NW,9.2,-,N/A,,Overcast,320,2013-11-10 09:54:00
4:14 AM,35.6,26.6,70,30.25,10.0,NW,4.6,-,N/A,,Overcast,310,2013-11-10 10:14:00
4:34 AM,35.6,26.6,70,30.27,10.0,WNW,4.6,-,N/A,,Overcast,300,2013-11-10 10:34:00
4:54 AM,35.6,24.8,65,30.27,10.0,WNW,5.8,-,N/A,,Overcast,290,2013-11-10 10:54:00
5:14 AM,33.8,23.0,65,30.28,10.0,WNW,4.6,-,N/A,,Overcast,300,2013-11-10 11:14:00
5:34 AM,33.8,24.8,70,30.28,10.0,NW,5.8,-,N/A,,Overcast,310,2013-11-10 11:34:00
5:54 AM,32.0,23.0,69,30.28,10.0,Calm,Calm,-,N/A,,Mostly Cloudy,0,2013-11-10 11:54:00
6:13 AM,32.0,24.8,75,30.27,10.0,Calm,Calm,-,N/A,,Scattered Clouds,0,2013-11-10 12:13:00
6:34 AM,30.2,24.8,80,30.27,10.0,Calm,Calm,-,N/A,,Clear,0,2013-11-10 12:34:00
6:54 AM,28.4,23.0,80,30.28,10.0,Calm,Calm,-,N/A,,Clear,0,2013-11-10 12:54:00
7:14 AM,30.2,24.8,80,30.29,10.0,Calm,Calm,-,N/A,,Clear,0,2013-11-10 13:14:00
7:34 AM,30.2,23.0,75,30.29,10.0,Calm,Calm,-,N/A,,Clear,0,2013-11-10 13:34:00
7:54 AM,32.0,26.6,80,30.31,10.0,WSW,4.6,-,N/A,,Clear,250,2013-11-10 13:54:00
8:14 AM,32.0,24.8,75,30.31,10.0,West,4.6,-,N/A,,Clear,280,2013-11-10 14:14:00
8:34 AM,33.8,26.6,75,30.30,10.0,West,4.6,-,N/A,,Clear,280,2013-11-10 14:34:00
8:54 AM,33.8,24.8,70,30.31,10.0,West,6.9,-,N/A,,Clear,270,2013-11-10 14:54:00
9:14 AM,33.8,26.6,75,30.30,10.0,WSW,5.8,-,N/A,,Clear,250,2013-11-10 15:14:00
9:34 AM,35.6,26.6,70,30.28,10.0,SW,6.9,-,N/A,,Clear,230,2013-11-10 15:34:00
9:53 AM,35.6,26.6,70,30.29,10.0,West,8.1,-,N/A,,Clear,270,2013-11-10 15:53:00
10:14 AM,35.6,26.6,70,30.28,10.0,WSW,6.9,-,N/A,,Clear,240,2013-11-10 16:14:00
10:34 AM,35.6,26.6,70,30.29,10.0,WSW,6.9,-,N/A,,Clear,250,2013-11-10 16:34:00
10:54 AM,35.6,26.6,70,30.28,10.0,SW,8.1,-,N/A,,Clear,230,2013-11-10 16:54:00
11:14 AM,37.4,26.6,65,30.27,10.0,SW,8.1,-,N/A,,Clear,220,2013-11-10 17:14:00
11:34 AM,37.4,26.6,65,30.26,10.0,WSW,10.4,-,N/A,,Clear,240,2013-11-10 17:34:00
11:54 AM,35.6,26.6,70,30.26,10.0,WSW,10.4,-,N/A,,Clear,250,2013-11-10 17:54:00
12:14 PM,35.6,26.6,70,30.25,10.0,SW,10.4,-,N/A,,Clear,230,2013-11-10 18:14:00
12:34 PM,35.6,26.6,70,30.24,10.0,WSW,9.2,-,N/A,,Clear,240,2013-11-10 18:34:00
12:54 PM,35.6,26.6,70,30.24,10.0,WSW,12.7,-,N/A,,Clear,240,2013-11-10 18:54:00
1:14 PM,37.4,26.6,65,30.23,10.0,WSW,9.2,-,N/A,,Clear,240,2013-11-10 19:14:00
1:34 PM,37.4,26.6,65,30.22,10.0,SW,12.7,17.3,N/A,,Clear,230,2013-11-10 19:34:00
1:54 PM,37.4,26.6,65,30.21,10.0,WSW,8.1,-,N/A,,Scattered Clouds,240,2013-11-10 19:54:00
2:14 PM,37.4,26.6,65,30.20,10.0,SW,9.2,-,N/A,,Scattered Clouds,230,2013-11-10 20:14:00
2:34 PM,37.4,26.6,65,30.19,10.0,SW,10.4,16.1,N/A,,Scattered Clouds,220,2013-11-10 20:34:00
2:54 PM,37.4,26.6,65,30.19,10.0,SW,10.4,-,N/A,,Mostly Cloudy,230,2013-11-10 20:54:00
3:14 PM,37.4,26.6,65,30.18,10.0,SW,11.5,16.1,N/A,,Mostly Cloudy,230,2013-11-10 21:14:00
3:34 PM,35.6,26.6,70,30.17,10.0,SW,6.9,-,N/A,,Overcast,220,2013-11-10 21:34:00
3:54 PM,35.6,26.6,70,30.16,10.0,SW,13.8,-,N/A,,Overcast,220,2013-11-10 21:54:00
4:14 PM,35.6,26.6,70,30.16,10.0,SW,6.9,-,N/A,,Overcast,230,2013-11-10 22:14:00
4:34 PM,35.6,26.6,70,30.15,10.0,SW,6.9,-,N/A,,Overcast,230,2013-11-10 22:34:00
4:54 PM,35.6,26.6,70,30.15,10.0,SW,5.8,-,N/A,,Overcast,230,2013-11-10 22:54:00
5:14 PM,35.6,28.4,75,30.14,10.0,SW,8.1,-,N/A,,Overcast,230,2013-11-10 23:14:00
5:34 PM,35.6,26.6,70,30.14,10.0,SW,6.9,-,N/A,,Overcast,230,2013-11-10 23:34:00
5:54 PM,35.6,28.4,75,30.14,10.0,SW,9.2,-,N/A,,Overcast,230,2013-11-10 23:54:00
6:14 PM,33.8,28.4,81,30.14,10.0,SW,9.2,-,N/A,,Overcast,230,2013-11-11 00:14:00
6:34 PM,33.8,28.4,81,30.13,10.0,SW,6.9,-,N/A,,Overcast,220,2013-11-11 00:34:00
6:54 PM,33.8,28.4,81,30.13,10.0,WSW,5.8,-,N/A,,Overcast,240,2013-11-11 00:54:00
7:14 PM,33.8,28.4,81,30.11,10.0,SW,9.2,-,N/A,,Overcast,220,2013-11-11 01:14:00
7:34 PM,33.8,28.4,81,30.11,10.0,WSW,5.8,-,N/A,,Overcast,240,2013-11-11 01:34:00
7:54 PM,33.8,28.4,81,30.13,10.0,WNW,5.8,-,N/A,,Overcast,300,2013-11-11 01:54:00
8:14 PM,33.8,28.4,81,30.13,10.0,WNW,5.8,-,N/A,,Overcast,300,2013-11-11 02:14:00
8:34 PM,33.8,28.4,81,30.12,10.0,West,3.5,-,N/A,,Overcast,270,2013-11-11 02:34:00
8:54 PM,33.8,28.4,81,30.13,10.0,West,3.5,-,N/A,,Overcast,280,2013-11-11 02:54:00
9:14 PM,33.8,28.4,81,30.12,10.0,WNW,3.5,-,N/A,,Overcast,290,2013-11-11 03:14:00
9:34 PM,33.8,28.4,81,30.13,10.0,West,3.5,-,N/A,,Overcast,270,2013-11-11 03:34:00
9:54 PM,33.8,28.4,81,30.11,10.0,West,4.6,-,N/A,,Overcast,280,2013-11-11 03:54:00
10:14 PM,33.8,28.4,81,30.11,10.0,West,4.6,-,N/A,,Overcast,280,2013-11-11 04:14:00
10:34 PM,33.8,28.4,81,30.11,10.0,West,4.6,-,N/A,,Overcast,270,2013-11-11 04:34:00
10:54 PM,33.8,28.4,81,30.10,10.0,West,4.6,-,N/A,,Overcast,280,2013-11-11 04:54:00
11:14 PM,33.8,28.4,81,30.11,10.0,West,4.6,-,N/A,,Overcast,280,2013-11-11 05:14:00
11:34 PM,33.8,28.4,81,30.11,10.0,WNW,5.8,-,N/A,,Overcast,290,2013-11-11 05:34:00
11:54 PM,33.8,28.4,81,30.13,10.0,NNW,17.3,20.7,N/A,,Overcast,330,2013-11-11 05:54:00